Location: Black Forest
(43.4794°N, 75.0081°W)
Time: 13:52:11
(UTC-04:00)

ISS - Visible Passes

Search period start: 19 September 2014 00:00
Search period end: 29 September 2014 00:00
Orbit: 414 x 417 km, 51.6° (Epoch: 19 September)

Date Brightness Start Highest point End Pass type
(mag) Time Alt. Az. Time Alt. Az. Time Alt. Az.
19 Sep -0.7 04:09:17 22° NE 04:09:17 22° NE 04:10:36 10° NE visible
19 Sep -1.4 05:42:09 12° WNW 05:44:26 22° N 05:47:09 10° NE visible
20 Sep -1.8 04:55:19 27° NNW 04:55:26 27° NNW 04:58:20 10° NE visible
21 Sep -0.5 04:08:25 18° NE 04:08:25 18° NE 04:09:32 10° NE visible
21 Sep -1.1 05:41:19 10° NW 05:43:50 20° N 05:46:22 10° NE visible
22 Sep -1.3 04:54:22 20° NNW 04:54:44 21° N 04:57:20 10° NE visible
23 Sep -0.3 04:07:25 15° NNE 04:07:25 15° NNE 04:08:21 10° NE visible
23 Sep -1.1 05:40:28 10° NW 05:43:06 21° N 05:45:44 10° ENE visible
24 Sep -1.1 04:53:20 19° NNW 04:53:56 20° N 04:56:28 10° NE visible
25 Sep -0.2 04:06:23 14° NE 04:06:23 14° NE 04:07:14 10° NE visible
25 Sep -1.5 05:39:15 10° NW 05:42:09 28° NNE 05:45:06 10° E visible
26 Sep -1.3 04:52:20 22° N 04:52:57 23° NNE 04:55:42 10° ENE visible
27 Sep -0.1 04:05:28 14° NE 04:05:28 14° NE 04:06:17 10° ENE visible
27 Sep -2.5 05:38:21 15° NW 05:40:55 50° NNE 05:44:10 10° ESE visible
28 Sep -1.9 04:51:33 35° NNE 04:51:43 35° NNE 04:54:49 10° E visible
28 Sep -2.7 06:25:18 10° WNW 06:28:27 40° SW 06:31:35 10° SSE visible
